Location: Fairmont
(43.6520°N, 94.4610°W)
Time: 15:43:35
(UTC-05:00)

Cosmos-2242 - Visible Passes

Search period start: 27 April 2015 00:00
Search period end: 07 May 2015 00:00
Orbit: 594 x 621 km, 82.5° (Epoch: 27 April)

Date Brightness Start Highest point End Pass type
(mag) Time Alt. Az. Time Alt. Az. Time Alt. Az.
27 Apr 4.7 02:12:06 10° N 02:14:25 31° N 02:14:25 31° N visible
28 Apr 5.8 00:50:13 10° NE 00:51:06 12° NE 00:51:06 12° NE visible
28 Apr 4.8 02:25:53 10° NNW 02:28:01 28° NNW 02:28:01 28° NNW visible
29 Apr 5.4 01:02:51 10° NNE 01:04:43 17° NE 01:04:43 17° NE visible
29 Apr 5.0 02:39:52 10° NNW 02:41:37 21° NW 02:41:37 21° NW visible
30 Apr 5.1 01:16:04 10° N 01:18:19 24° NE 01:18:19 24° NE visible
30 Apr 5.3 02:54:06 10° NW 02:55:14 15° NW 02:55:14 15° NW visible
01 May 4.8 01:29:33 10° N 01:31:57 30° NNE 01:31:57 30° NNE visible
02 May 4.7 01:43:14 10° N 01:45:34 31° N 01:45:34 31° N visible
03 May 5.5 00:20:44 10° NNE 00:22:18 14° NE 00:22:18 14° NE visible
03 May 4.8 01:57:05 10° NNW 01:59:12 27° NNW 01:59:12 27° NNW visible
04 May 5.1 00:33:42 10° NNE 00:35:56 21° NE 00:35:56 21° NE visible
04 May 5.1 02:11:08 10° NNW 02:12:51 20° NW 02:12:51 20° NW visible
05 May 4.7 00:47:02 10° N 00:49:35 29° NNE 00:49:35 29° NNE visible
05 May 5.5 02:25:34 10° NW 02:26:30 13° NW 02:26:30 13° NW visible
06 May 4.4 01:00:35 10° N 01:03:15 36° N 01:03:15 36° N visible
06 May 5.5 23:38:58 10° NE 23:40:00 11° ENE 23:40:00 11° ENE visible
